Regional Weather Roundup
Issued by NWS Mobile, AL

Home | Current Version | Previous Version | Text Only | Print | Product List | Glossary Off
Versions: 1 2 3 4 5 6 7 8 9 10 11 12 13 14 15 16 17 18 19 20 21 22 23 24 25 26 27

000
ASUS44 KMOB 261613
RWRMOB
REGIONAL WEATHER ROUNDUP
NATIONAL WEATHER SERVICE MOBILE AL
1100 AM CDT WED JUL 26 2017

NOTE: "FAIR" INDICATES FEW OR NO CLOUDS BELOW 12,000 FEET WITH NO
      SIGNIFICANT WEATHER AND/OR OBSTRUCTIONS TO VISIBILITY.

  * THESE STATIONS ARE PART OF THE UNIVERSITY OF SOUTH ALABAMA
    MESONET AND ARE NOT UNDER NWS OR FAA QUALITY CONTROL.

ALZ061>064-261700-
COASTAL ALABAMA

CITY           SKY/WX    TMP DP  RH WIND       PRES   REMARKS
MOBILE REG APT PTSUNNY   86  75  69 N7        30.14F HX  95
BROOKLEY FIELD SUNNY     85  79  82 NE5       30.14F HX  98
USA CAMPUS*      N/A     86  75  70 CALM      30.13S HX  95
DOG RIVER*     NOT AVBL


CITY           SKY/WX    TMP DP  RH WIND       PRES   REMARKS
GULF SHORES    CLOUDY    85  79  80 NW6       30.12F HX  98

$$

ALZ051>060-261700-
INTERIOR SOUTHWEST AND SOUTH CENTRAL ALABAMA

CITY           SKY/WX    TMP DP  RH WIND       PRES   REMARKS
GREENVILLE     MOSUNNY   85  75  72 W5        30.12F
EVERGREEN      CLOUDY    85  77  77 NW5       30.14S HX  95
ATMORE*        NOT AVBL
ANDALUSIA/OPP  CLOUDY    86  76  71 VRB7      30.13S HX  96
ANDALUSIA*       N/A     82  75  78 N7        30.14S
FLORALA APT    PTSUNNY   85  76  74 VRB3      30.14F
FLORALA*         N/A     84  77  79 SW3       30.85S

$$

FLZ001>006-261700-
WESTERN FLORIDA PANHANDLE

CITY           SKY/WX    TMP DP  RH WIND       PRES   REMARKS
PENSACOLA      MOSUNNY   87  75  67 N6        30.12F HX  96
NAS PENSACOLA  CLOUDY    87  76  69 NW7       30.11F HX  97
MILTON         PTSUNNY   84  78  82 NW6       30.13S HX  95
WHTNG S FIELD  PTSUNNY   88  79  74 CALM      30.13S HX 103


CITY           SKY/WX    TMP DP  RH WIND       PRES   REMARKS
JAY*             N/A     84  75  74 NW3       30.13F
DUKE FIELD     PTSUNNY   84  75  73 N5        30.12F
CRESTVIEW      MOSUNNY   87  76  69 VRB3      30.13F HX  97
VALPARAISO     PTSUNNY   87  74  66 N7        30.11F HX  95
DESTIN         PTSUNNY   88  75  65 VRB5      30.11F HX  97

$$

MSZ076-079-261700-
INTERIOR SOUTHEAST MISSISSIPPI

CITY           SKY/WX    TMP DP  RH WIND       PRES   REMARKS
LEAKESVILLE*   NOT AVBL
AGRICOLA*        N/A     86  77  74 N5        30.13S HX  97

$$

MARINE OBSERVATIONS

STATION/POSITION TIME  TEMP    WIND        PRES    WAVE
                       AIR SEA DIR/SP/G            HT/PER
                 (UTC) (F)     (DEG/KT/KT) (MB)    (FT/S)
PASCAGOULA       1548   85      10/ 10/ 13 1020.1F
PETIT BOIS ISLND 1548   84      40/  8/  9 1020.9F
KATRINA CUT      1530   82      40/  5     1020.6S
CEDAR POINT      1530   81      50/  6     1021.0R
E DAUPHIN ISLAND 1500   80      20/ 10/ 11 1020.2R
MIDDLE BAY LIGHT 1530   83      20/  6     1020.3F
USCG MOBILE BAY  1548   83 84   70/  3/  5 1021.0F
STATE DOCKS      1548   87 85              1020.2F
MEAHER PARK      1530   83     360/  4     1020.3F
WEEKS BAY        1345   80                   N/A
FORT MORGAN      1548   81      10/  7/  9   N/A
12 S ORANGE BCH  1550   80 85  360/  4/  4 1019.9F   1
PENSACOLA BAY    1542   87 85              1020.3R
64 S DAUPHIN ISL 1550   80 86   CALM  /  2 1020.1F   2/ 3
67 S FORT MORGAN 1530   76     240/  4     1020.3F

$$

SELECTED LOCATIONS ACROSS THE REGION

CITY           SKY/WX    TMP DP  RH WIND       PRES   REMARKS
NEW ORLEANS    MOSUNNY   88  77  69 NW7       30.13S HX 100
GULFPORT       MOSUNNY   90  76  63 VRB7      30.12S HX 101
PASCAGOULA AP  MOSUNNY   87  74  64 N10       30.13S HX  95
PASCAGOULA*      N/A     84  75  74 NE7         N/A
HATTIESBURG    SUNNY     87  76  69 VRB5      30.14F HX  97
LAUREL         SUNNY     88  77  70 CALM      30.16R HX 100
MERIDIAN       SUNNY     90  76  63 W5        30.14S HX 101
JACKSON        SUNNY     86  74  67 VRB3      30.15S
MONTGOMERY     MOSUNNY   90  76  63 N5        30.11F HX 101
TROY           MOSUNNY   87  77  72 CALM      30.12F HX  99
ASHFORD*         N/A     82  75  78 N7        30.14S
DOTHAN         MOSUNNY   85  78  80 CALM      30.15F HX  96
PANAMA CITY    MOSUNNY   87  73  62 W5        30.10F

$$





USA.gov is the U.S. government's official web portal to all federal, state and local government web resources and services.